Home   Weather   Leerdam   Past weeks

Flag for Netherlands Past Weather in Leerdam, Netherlands — Yesterday and Last 2 Weeks

Now
34 °F

Dense fog.


Feels Like: 34 °F
Forecast: 26 / 33 °F
Wind: 2 mph from Southeast

Location: De Bilt

Current Time: Jan 24, 2017 at 12:27:55 pm

Latest Report: Jan 24, 2017 at 11:00 am


Visibility: 0 mi

Pressure: 30.38 "Hg

Humidity: 100%

Dew Point: 34 °F

Location of LeerdamLocation

Past Weather in Leerdam — Graph

°F

Leerdam Temperature Yesterday

Maximum temperature yesterday: 37 °F (at 1:00 pm)
Minimum temperature yesterday: 31 °F (at 6:00 am)
Average temperature yesterday: 35 °F

High & Low Weather Summary for the Past Weeks

 TemperatureHumidityPressure
High50 °F (Jan 11, 12:00 pm)100% (Jan 9, 10:00 am)30.75 "Hg (Jan 9, 10:00 am)
Low19 °F (Jan 22, 7:00 am)41% (Jan 20, 1:00 pm)29.06 "Hg (Jan 13, 12:00 am)
Average34 °F88%30.19 "Hg
* Reported Jan 9 10:00 am — Jan 24 10:00 am, Leerdam, Weather by CustomWeather, © 2017

Note: Actual official high and low records may vary slightly from our data, if they occured in-between our weather recording intervals... More about our weather records

Advertising

Leerdam Weather History for the Previous 24 Hours

Scroll right to see more
 ConditionsComfort  
Time TempWeatherWind HumidityBarometerVisibility
10:00 am
Tue, Jan 24
33 °FDense fog.2 mph100%30.36 "Hg0 mi
9:00 am33 °FDense fog.1 mph100%30.34 "Hg0 mi
8:00 am33 °FDense fog.2 mph99%30.32 "Hg0 mi
7:00 am33 °FDense fog.1 mph100%30.31 "Hg0 mi
6:00 am34 °FDense fog.1 mph100%30.30 "Hg0 mi
5:00 am34 °FDense fog.2 mph100%30.29 "Hg1 mi
4:00 am34 °FSprinkles. Dense fog.2 mph99%30.29 "Hg1 mi
3:00 am34 °FLow clouds.2 mph100%30.30 "Hg1 mi
2:00 am34 °FLight freezing rain. Dense fog.1 mph100%30.30 "Hg0 mi
1:00 am34 °FDense fog.2 mph100%30.30 "Hg0 mi
12:00 am35 °FDense fog.2 mph99%30.30 "Hg0 mi
11:00 pm
Mon, Jan 23
35 °FFog.2 mph98%30.30 "Hg1 mi
10:00 pm36 °FFog.2 mph94%30.31 "Hg1 mi
9:00 pm36 °FLow clouds.2 mph94%30.31 "Hg2 mi
8:00 pm36 °FFog.2 mph94%30.31 "Hg2 mi
7:00 pm36 °FLow clouds.3 mph92%30.31 "Hg2 mi
6:00 pm36 °FLow clouds.3 mph88%30.31 "Hg2 mi
5:00 pm36 °FLow clouds.3 mph86%30.31 "Hg3 mi
4:00 pm36 °FLow clouds.3 mph85%30.31 "Hg3 mi
3:00 pm37 °FOvercast.2 mph84%30.32 "Hg4 mi
2:00 pm37 °FFog.3 mph85%30.33 "Hg3 mi
1:00 pm37 °FFog.3 mph83%30.34 "Hg4 mi
12:00 pm37 °FFog.3 mph83%30.36 "Hg4 mi
Weather by CustomWeather, © 2017

See weather overviewHow to use our weather pages